Miscellaneous Local Product
Issued by NWS Hastings, NE

Home | Current Version | Previous Version | Text Only | Print | Product List | Glossary Off
Versions: 1 2 3 4 5 6 7 8 9 10 11 12 13 14 15 16 17 18 19 20 21 22 23 24 25 26 27 28 29 30 31 32 33 34 35 36 37 38 39 40 41 42 43 44 45 46 47 48 49 50

000
AXUS43 KGID 270602
MISGRI

GID CWA HOURLY WEATHER ROUNDUP
NATIONAL WEATHER SERVICE HASTINGS NE
100 AM CDT SAT AUG 27 2016

NOTE: "FAIR" INDICATES FEW OR NO CLOUDS BELOW 12,000 FEET WITH NO
SIGNIFICANT WEATHER AND/OR OBSTRUCTIONS TO VISIBILITY.

...SOUTH CENTRAL NEBRASKA...

CITY           SKY/WX    TMP DP  RH WIND       PRES   REMARKS
GRAND ISLAND   CLOUDY    64  63  96 SE10      30.01F FOG
HASTINGS       LGT RAIN  64  63  96 SE9       30.03F FOG
KEARNEY        CLOUDY    64  61  88 S7        30.03S
ORD            MOCLDY    63  60  90 CALM      30.04F
YORK           LGT RAIN  64  64 100 SE6       30.04F
AURORA         LGT RAIN  64  64 100 SE7       30.04F
LEXINGTON      CLEAR     58  56  91 W5        30.05R
HOLDREGE       CLOUDY    59  57  93 CALM      30.04S
HEBRON           N/A     68  67  97 CALM      30.04S FOG

...NEBRASKA PANHANDLE...

CITY           SKY/WX    TMP DP  RH WIND       PRES   REMARKS
CHADRON        TSTM      56  53  90 VRB5      30.09F
ALLIANCE       MOCLDY    53  52  96 E3        30.09R
SCOTTSBLUFF    MOCLDY    57  54  89 NE9       30.07S
SIDNEY         CLOUDY    55  54  96 CALM      30.10S

...WESTERN AND NORTH CENTRAL NEBRASKA...

CITY           SKY/WX    TMP DP  RH WIND       PRES   REMARKS
VALENTINE      CLOUDY    57  55  93 CALM      30.05F
AINSWORTH      PTCLDY    57  56  97 SE5       30.06F
ONEILL         CLOUDY    64  61  90 SE5       30.06F
BROKEN BOW     CLOUDY    63  62  97 E7        30.05R
IMPERIAL       FOG       52  51  97 N6        30.07F VSB 3/4
NORTH PLATTE   CLEAR     54  53  97 NW5       30.06S FOG
MCCOOK         CLEAR     54  52  93 W5        30.06R

...EASTERN NEBRASKA...

CITY           SKY/WX    TMP DP  RH WIND       PRES   REMARKS
NORFOLK        CLOUDY    63  61  93 E3        30.04F
SO SIOUX CITY  LGT RAIN  66  62  87 E3        30.04F
TEKAMAH        CLOUDY    65  63  93 CALM      30.03F
COLUMBUS       CLOUDY    63  55  77 E3        30.03F
ALBION         CLOUDY    63  61  93 SE5       30.05F FOG
OMAHA EPPLEY   CLOUDY    66  62  87 CALM      30.03S
OFFUTT AFB     PTCLDY    64  64 100 NE1       30.02S
MILLARD        CLOUDY    67  64  90 CALM      30.03S
LINCOLN        CLOUDY    68  66  93 SE5       30.04S
NEBRASKA CITY  CLOUDY    66  66 100 CALM      30.03R FOG
BEATRICE       CLOUDY    68  66  95 SE5       30.03S
FALLS CITY     FOG       67  66  97 CALM      30.01F VSB 1/2

...NORTHERN KANSAS...

CITY           SKY/WX    TMP DP  RH WIND       PRES   REMARKS
GOODLAND       FOG       51  49  92 SE6       30.08F VSB 1/2
HILL CITY      CLOUDY    59  58  96 E3        30.05F
SMITH CENTER   RAIN      63  59  88 CALM      30.03S
BELOIT         MOCLDY    64  61  88 NW14G25   30.05R
HAYS           CLOUDY    61  52  72 NE14      30.06F
RUSSELL        HVY RAIN  61  60  97 N16       30.04F FOG
CONCORDIA      CLOUDY    67  65  93 NE5       30.02S
SALINA         CLOUDY    73  66  78 E6        30.01F
TOPEKA         PTCLDY    70  68  93 CALM      30.03F



USA.gov is the U.S. government's official web portal to all federal, state and local government web resources and services.